Location: Beetenbrück
(52.8113°N, 9.5946°E)
Time: 22:09:04
(UTC+00:00)

Cosmos 2278 Rocket - Pass Details

Date: 14 April 2026
Orbit: 839 x 846 km, 71.0° (Epoch: 12 May)

Event Time Altitude Azimuth Distance (km) Brightness Sun altitude
Rises 18:51:00 0° 329° (NNW) 3,419 6.4 -5.3°
Reaches altitude 10° 18:53:33 10° 334° (NNW) 2,480 5.5 -5.7°
Maximum altitude 18:59:06 51° 51° (NE) 1,058 2.6 -6.4°
Drops below altitude 10° 19:04:36 10° 127° (SE) 2,464 4.0 -7.2°
Enters shadow 19:05:02 - 128° (SE) 2,620 4.1 -7.2°
